Location: Munkebjergskolens Observatorium
(55.3864°N, 10.3987°E)
Time: 05:06:18
(UTC+02:00)

CAS-6 - Pass Details

Date: 02 April 2023
Orbit: 610 x 632 km, 97.9° (Epoch: 31 May)

Event Time Altitude Azimuth Distance (km) Brightness Sun altitude
Exits shadow 23:55:16 44° 277° (W) 876 ? -26.9°
Drops below altitude 10° 23:59:06 10° 335° (NNW) 2,015 ? -27.1°
Sets 00:01:24 0° 342° (NNW) 2,931 ? -27.3°
